Weather History for St. James, MN

Change the Weather History Date:

Saturday, March 30, 2013

  Actual Average Record
Temperature  
Mean Temperature 46 °F -  
Max Temperature 55 °F 49 °F 84 °F (1968)
Min Temperature 35 °F 28 °F -3 °F (1969)
Degree Days  
Heating Degree Days 19    
Moisture  
Dew Point 38 °F    
Average Humidity 71    
Maximum Humidity 87    
Minimum Humidity 58    
Precipitation  
Precipitation 0.00 in - - ()
Sea Level Pressure  
Sea Level Pressure 29.93 in    
Wind  
Wind Speed 11 mph (West)    
Max Wind Speed 18 mph    
Max Gust Speed 24 mph    
Visibility 8 miles    
Events Thunderstorm    
Averages and records for this station are not official NWS values.
T = Trace of Precipitation, MM = Missing Value Source: NWS Daily Summary

Daily Weather History Graph

Daily Weather History Graph

Search for Another Location

Airport:

Trip Planner

Search our weather history database for the weather conditions in past years. The results will help you decide how hot, cold, wet, or windy it might be!

Date:

Astronomy

Mar. 30, 2013 Rise Set
Actual Time 7:02 AM CDT 7:43 PM CDT
Civil Twilight 6:33 AM CDT 8:12 PM CDT
Nautical Twilight 5:59 AM CDT 8:46 PM CDT
Astronomical Twilight 5:23 AM CDT 9:22 PM CDT
Moon 11:59 PM CDT (3/30) 8:50 AM CDT (3/30)
Length of Visible Light 13h 38m
Length of Day
12h 40m
Waning Gibbous, 86% of the Moon is Illuminated
Mar 30
Waning Gibbous
Apr 2
Last Quarter
Apr 10
New
Apr 18
First Quarter
Apr 25
Full

Hourly Weather History & Observations

Time (CDT) Temp. Windchill Dew Point Humidity Pressure Visibility Wind Dir Wind Speed Gust Speed Precip Events Conditions
12:15 AM 46.4 °F 40.7 °F 35.6 °F 66% 30.02 in 10.0 mi SSE 12.7 mph - N/A   Scattered Clouds
12:35 AM 48.2 °F - 35.6 °F 62% 30.01 in 10.0 mi SSE 12.7 mph - N/A   Scattered Clouds
1:15 AM 48.2 °F - 33.8 °F 58% 29.99 in 10.0 mi SSE 18.4 mph - N/A Thunderstorm Overcast
1:34 AM 48.2 °F - 33.8 °F 58% 29.98 in 10.0 mi SSE 18.4 mph - N/A   Scattered Clouds
1:53 AM 46.4 °F 40.4 °F 33.8 °F 62% 29.98 in 10.0 mi SSE 13.8 mph - N/A   Clear
2:15 AM 44.6 °F 38.1 °F 33.8 °F 66% 29.98 in 10.0 mi South 13.8 mph - N/A   Clear
2:35 AM 44.6 °F 38.1 °F 33.8 °F 66% 29.97 in 10.0 mi SSE 13.8 mph - N/A   Clear
2:55 AM 44.6 °F 38.1 °F 33.8 °F 66% 29.96 in 10.0 mi South 13.8 mph - N/A   Clear
3:15 AM 44.6 °F 37.4 °F 33.8 °F 66% 29.95 in 10.0 mi SSE 16.1 mph 20.7 mph N/A   Clear
3:35 AM 44.6 °F 38.1 °F 33.8 °F 66% 29.95 in 10.0 mi South 13.8 mph - N/A   Clear
3:55 AM 44.6 °F 37.8 °F 33.8 °F 66% 29.95 in 10.0 mi South 15.0 mph - N/A   Clear
4:15 AM 44.6 °F 38.8 °F 33.8 °F 66% 29.94 in 10.0 mi South 11.5 mph 17.3 mph N/A   Clear
4:35 AM 42.8 °F 36.6 °F 33.8 °F 70% 29.94 in 10.0 mi South 11.5 mph - N/A   Clear
4:55 AM 42.8 °F 37.5 °F 33.8 °F 70% 29.93 in 10.0 mi South 9.2 mph - N/A   Clear
5:15 AM 42.8 °F 36.2 °F 33.8 °F 70% 29.92 in 10.0 mi South 12.7 mph - N/A   Clear
5:35 AM 42.8 °F 36.6 °F 33.8 °F 70% 29.91 in 10.0 mi South 11.5 mph - N/A   Clear
5:55 AM 42.8 °F 38.6 °F 33.8 °F 70% 29.91 in 10.0 mi South 6.9 mph - N/A   Scattered Clouds
6:15 AM 42.8 °F 37.5 °F 33.8 °F 70% 29.91 in 10.0 mi South 9.2 mph - N/A   Mostly Cloudy
6:35 AM 42.8 °F - 35.6 °F 76% 29.91 in 10.0 mi Calm Calm - N/A   Overcast
6:55 AM 44.6 °F - 35.6 °F 71% 29.91 in 10.0 mi Calm Calm - N/A   Overcast
7:14 AM 44.6 °F - 35.6 °F 71% 29.90 in 10.0 mi Calm Calm - N/A   Overcast
7:35 AM 46.4 °F - 37.4 °F 71% 29.91 in 10.0 mi Calm Calm - N/A   Overcast
7:55 AM 46.4 °F - 39.2 °F 76% 29.91 in 10.0 mi Calm Calm - N/A   Overcast
8:15 AM 44.6 °F 41.4 °F 37.4 °F 76% 29.92 in 10.0 mi North 5.8 mph - N/A   Overcast
8:35 AM 44.6 °F - 37.4 °F 76% 29.92 in 10.0 mi Calm Calm - N/A   Overcast
8:55 AM 48.2 °F - 39.2 °F 71% 29.92 in 10.0 mi Calm Calm - N/A   Overcast
9:14 AM 50.0 °F - 39.2 °F 66% 29.91 in 10.0 mi Calm Calm - N/A   Overcast
9:35 AM 50.0 °F - 41.0 °F 71% 29.91 in 10.0 mi SW 8.1 mph - N/A   Overcast
9:55 AM 48.2 °F - 39.2 °F 71% 29.92 in 10.0 mi Calm Calm - N/A   Overcast
10:15 AM 51.8 °F - 42.8 °F 71% 29.91 in 10.0 mi Calm Calm - N/A   Mostly Cloudy
10:34 AM 51.8 °F - 42.8 °F 71% 29.91 in 10.0 mi West 11.5 mph 16.1 mph N/A   Mostly Cloudy
10:55 AM 53.6 °F - 42.8 °F 67% 29.91 in 10.0 mi WNW 15.0 mph 18.4 mph N/A   Overcast
11:15 AM 53.6 °F - 42.8 °F 67% 29.91 in 10.0 mi WNW 16.1 mph - N/A   Mostly Cloudy
11:35 AM 53.6 °F - 41.0 °F 62% 29.91 in 7.0 mi WNW 17.3 mph 24.2 mph N/A   Scattered Clouds
11:55 AM 53.6 °F - 42.8 °F 67% 29.92 in 7.0 mi NW 17.3 mph 21.9 mph N/A   Scattered Clouds
12:14 PM 51.8 °F - 42.8 °F 71% 29.93 in 5.0 mi NW 17.3 mph - N/A   Haze
12:35 PM 48.2 °F - 39.2 °F 71% 29.93 in 4.0 mi WNW 16.1 mph - N/A   Haze
12:55 PM 46.4 °F 40.1 °F 39.2 °F 76% 29.94 in 3.0 mi NW 15.0 mph - N/A   Haze
1:15 PM 46.4 °F 40.7 °F 39.2 °F 76% 29.93 in 4.0 mi NW 12.7 mph - N/A   Haze
1:35 PM 48.2 °F - 39.2 °F 71% 29.93 in 4.0 mi WNW 11.5 mph - N/A   Haze
1:54 PM 50.0 °F - 42.8 °F 76% 29.93 in 5.0 mi NW 11.5 mph - N/A   Haze
2:15 PM 51.8 °F - 41.0 °F 67% 29.92 in 5.0 mi NW 13.8 mph - N/A   Haze
2:35 PM 51.8 °F - 42.8 °F 71% 29.92 in 5.0 mi WNW 11.5 mph - N/A   Haze
2:55 PM 51.8 °F - 42.8 °F 71% 29.92 in 7.0 mi NW 11.5 mph 17.3 mph N/A   Mostly Cloudy
3:14 PM 51.8 °F - 42.8 °F 71% 29.92 in 7.0 mi WNW 10.4 mph - N/A   Scattered Clouds
3:34 PM 53.6 °F - 42.8 °F 67% 29.92 in 7.0 mi NW 9.2 mph - N/A   Scattered Clouds
3:55 PM 53.6 °F - 42.8 °F 67% 29.91 in 7.0 mi WNW 9.2 mph - N/A   Scattered Clouds
4:15 PM 53.6 °F - 42.8 °F 67% 29.91 in 10.0 mi NW 11.5 mph - N/A   Scattered Clouds
4:34 PM 53.6 °F - 42.8 °F 67% 29.91 in 10.0 mi NW 11.5 mph 16.1 mph N/A   Scattered Clouds
4:55 PM 53.6 °F - 42.8 °F 67% 29.91 in 10.0 mi WNW 12.7 mph 17.3 mph N/A   Scattered Clouds
5:15 PM 53.6 °F - 42.8 °F 67% 29.91 in 7.0 mi NW 11.5 mph - N/A   Scattered Clouds
5:34 PM 55.4 °F - 41.0 °F 58% 29.90 in 10.0 mi NW 15.0 mph - N/A   Scattered Clouds
5:55 PM 53.6 °F - 41.0 °F 62% 29.90 in 10.0 mi NW 12.7 mph - N/A   Clear
6:15 PM 53.6 °F - 41.0 °F 62% 29.90 in 10.0 mi WNW 13.8 mph - N/A   Clear
6:34 PM 51.8 °F - 41.0 °F 67% 29.91 in 10.0 mi WNW 12.7 mph - N/A   Clear
6:55 PM 50.0 °F - 39.2 °F 66% 29.91 in 7.0 mi NW 13.8 mph - N/A   Clear
7:15 PM 48.2 °F - 39.2 °F 71% 29.91 in 7.0 mi WNW 12.7 mph - N/A   Clear
7:34 PM 46.4 °F 41.1 °F 37.4 °F 71% 29.91 in 5.0 mi WNW 11.5 mph - N/A   Haze
7:55 PM 44.6 °F 38.8 °F 37.4 °F 76% 29.91 in 7.0 mi WNW 11.5 mph - N/A   Clear
8:15 PM 44.6 °F 39.2 °F 37.4 °F 76% 29.92 in 7.0 mi WNW 10.4 mph - N/A   Clear
8:35 PM 42.8 °F 37.0 °F 35.6 °F 76% 29.92 in 7.0 mi WNW 10.4 mph - N/A   Clear
8:54 PM 42.8 °F 38.0 °F 35.6 °F 76% 29.92 in 5.0 mi West 8.1 mph - N/A   Haze
9:15 PM 41.0 °F 34.7 °F 35.6 °F 81% 29.93 in 5.0 mi WNW 10.4 mph - N/A   Haze
9:35 PM 39.2 °F 33.0 °F 33.8 °F 81% 29.93 in 5.0 mi WNW 9.2 mph - N/A   Haze
9:55 PM 39.2 °F 33.0 °F 33.8 °F 81% 29.93 in 5.0 mi WNW 9.2 mph - N/A   Haze
10:15 PM 39.2 °F 32.5 °F 33.8 °F 81% 29.93 in 4.0 mi WNW 10.4 mph - N/A   Haze
10:35 PM 39.2 °F 32.5 °F 33.8 °F 81% 29.93 in 4.0 mi WNW 10.4 mph - N/A   Haze
10:55 PM 37.4 °F 30.3 °F 33.8 °F 87% 29.93 in 3.0 mi WNW 10.4 mph - N/A   Haze
11:15 PM 37.4 °F 29.3 °F 32.0 °F 81% 29.93 in 3.0 mi WNW 12.7 mph - N/A   Haze
11:35 PM 37.4 °F 30.3 °F 32.0 °F 81% 29.92 in 3.0 mi WNW 10.4 mph - N/A   Haze
11:54 PM 35.6 °F 28.6 °F 30.2 °F 81% 29.92 in 2.0 mi WNW 9.2 mph - N/A   Haze